Location: Laterina
(43.5167°N, 11.7167°E)
Time: 16:17:41
(UTC+00:00)

Ariane Rocket - Pass Details

Date: 24 September 2020
Orbit: 760 x 769 km, 98.7° (Epoch: 26 October)

Event Time Altitude Azimuth Distance (km) Brightness Sun altitude
Exits shadow 17:47:52 - 115° (ESE) 2,403 5.0 -8.4°
Reaches altitude 10° 17:48:12 10° 113° (ESE) 2,299 4.9 -8.4°
Maximum altitude 17:52:04 23° 63° (ENE) 1,606 4.2 -9.1°
Drops below altitude 10° 17:55:58 10° 13° (NNE) 2,315 5.5 -9.8°
Sets 17:58:42 0° 359° (N) 3,248 6.4 -10.3°
